KF4PPJ Weather Reports


time (UTC)temp
C
wind
direction
speed
KPH
gust
KPH
rain 1hr
cm
rain 24hr
cm
rain mn
cm
humidity
%
barometer
mb
20260902184736 20 167 8.0 11.3 0.00 0.00 0.00 57 1007.7
20260902184231 20 259 11.3 16.1 0.00 0.00 0.00 56 1007.9
20260902183727 21 211 6.4 8.0 0.00 0.00 0.00 58 1007.8
20260902183223 21 221 8.0 11.3 0.00 0.00 0.00 58 1008.0
20260902182719 21 163 1.6 1.6 0.00 0.00 0.00 61 1007.9
20260902182216 20 126 1.6 3.2 0.00 0.00 0.00 65 1007.8
20260902181712 19 70 3.2 8.0 0.00 0.00 0.00 65 1008.1
20260902181211 19 128 3.2 3.2 0.00 0.00 0.00 66 1008.0
20260902180711 18 149 1.6 4.8 0.00 0.00 0.00 68 1008.3
20260902180207 18 132 1.6 1.6 0.00 0.00 0.00 74 1008.1
20260902175702 18 153 0.0 1.6 0.00 0.00 0.00 75 1008.3
20260902175158 17 150 0.0 1.6 0.00 0.00 0.00 74 1008.3
20260902174654 17 152 0.0 1.6 0.00 0.00 0.00 78 1008.4
20260902174149 17 148 0.0 1.6 0.00 0.00 0.00 78 1008.5
20260902173644 17 119 1.6 3.2 0.00 0.00 0.00 75 1008.4
20260902173139 17 137 1.6 1.6 0.00 0.00 0.00 76 1008.6
20260902172638 17 139 0.0 1.6 0.00 0.00 0.00 76 1008.6
20260902172138 17 138 1.6 1.6 0.00 0.00 0.00 76 1008.5
20260902171633 17 160 0.0 1.6 0.00 0.00 0.00 78 1008.5
20260902171129 17 134 0.0 1.6 0.00 0.00 0.00 77 1008.9
20260902170626 17 144 0.0 1.6 0.00 0.00 0.00 78 1008.6
20260902170121 17 148 0.0 0.0 0.00 0.00 0.00 77 1008.8
20260902165620 17 152 0.0 0.0 0.00 0.00 0.00 78 1009.0
20260902165114 17 152 0.0 0.0 0.00 0.00 0.00 79 1008.8
20260902164609 17 152 0.0 0.0 0.00 0.00 0.00 78 1008.9
20260902164108 17 152 0.0 0.0 0.00 0.00 0.00 77 1008.9
20260902163604 17 155 0.0 1.6 0.00 0.00 0.00 76 1009.1
20260902163102 17 156 0.0 1.6 0.00 0.00 0.00 76 1009.0
20260902162602 17 162 1.6 3.2 0.00 0.00 0.00 73 1009.2
20260902162057 17 203 1.6 3.2 0.00 0.00 0.00 73 1009.1
20260902161552 17 162 0.0 1.6 0.00 0.00 0.00 74 1009.1
20260902161048 17 173 1.6 3.2 0.00 0.00 0.00 73 1009.4
20260902160543 17 169 3.2 8.0 0.00 0.00 0.00 73 1009.3
20260902160039 17 158 1.6 1.6 0.00 0.00 0.00 77 1009.3
20260902155532 17 153 1.6 4.8 0.00 0.00 0.00 76 1009.3
20260902155031 17 149 0.0 1.6 0.00 0.00 0.00 77 1009.5
20260902154526 17 124 1.6 1.6 0.00 0.00 0.00 78 1009.5
20260902154021 17 112 3.2 8.0 0.00 0.00 0.00 77 1009.4
20260902153519 17 146 1.6 4.8 0.00 0.00 0.00 81 1009.5
20260902153015 16 155 0.0 4.8 0.00 0.00 0.00 84 1009.8
20260902152512 16 118 1.6 4.8 0.00 0.00 0.00 88 1009.6
20260902152007 16 117 3.2 4.8 0.00 0.00 0.00 93 1009.7
20260902151503 15 164 0.0 4.8 0.00 0.00 0.00 94 1009.7
20260902151002 15 156 0.0 0.0 0.00 0.00 0.00 95 1009.8
20260902150458 15 135 0.0 0.0 0.00 0.00 0.00 96 1009.8
20260902145958 14 156 0.0 0.0 0.00 0.00 0.00 96 1009.9
20260902145453 14 156 0.0 0.0 0.00 0.00 0.00 96 1010.0
20260902144947 13 153 0.0 0.0 0.00 0.00 0.00 97 1010.2
20260902144444 13 145 0.0 0.0 0.00 0.00 0.00 97 1010.3
20260902143943 13 136 0.0 0.0 0.00 0.00 0.00 97 1010.2
20260902143439 13 156 0.0 0.0 0.00 0.00 0.00 97 1010.4
20260902142934 13 132 0.0 0.0 0.00 0.00 0.00 97 1010.3
20260902142430 13 127 0.0 0.0 0.00 0.00 0.00 96 1010.5
20260902141925 13 148 0.0 0.0 0.00 0.00 0.00 97 1010.4
20260902141420 13 140 0.0 0.0 0.00 0.00 0.00 97 1010.4
20260902140920 12 149 0.0 0.0 0.00 0.00 0.00 96 1010.6
20260902140416 12 149 0.0 0.0 0.00 0.00 0.00 96 1010.6
20260902135915 12 156 0.0 0.0 0.00 0.00 0.00 96 1010.5
20260902135412 12 147 0.0 0.0 0.00 0.00 0.00 97 1010.4
20260902134910 12 145 0.0 0.0 0.00 0.00 0.00 97 1010.4
20260902134406 12 153 0.0 0.0 0.00 0.00 0.00 96 1010.4
20260902133901 12 148 0.0 0.0 0.00 0.00 0.00 96 1010.6
20260902133400 12 160 0.0 0.0 0.00 0.00 0.00 96 1010.4
20260902132855 12 147 0.0 0.0 0.00 0.00 0.00 96 1010.3
20260902132350 12 147 0.0 0.0 0.00 0.00 0.00 96 1010.3
20260902131846 12 148 0.0 0.0 0.00 0.00 0.00 96 1010.4
20260902131343 13 124 0.0 0.0 0.00 0.00 0.00 96 1010.6
20260902130841 13 139 0.0 0.0 0.00 0.00 0.00 96 1010.5
20260902130338 13 156 0.0 0.0 0.00 0.00 0.00 96 1010.7
20260902125832 13 141 0.0 0.0 0.00 0.00 0.00 96 1010.6
20260902125329 13 149 0.0 0.0 0.00 0.00 0.00 96 1010.9
20260902124825 13 149 0.0 0.0 0.00 0.00 0.00 96 1010.8
20260902124320 13 149 0.0 0.0 0.00 0.00 0.00 96 1010.8
20260902123815 13 132 0.0 0.0 0.00 0.00 0.00 96 1010.8
20260902123312 13 149 0.0 0.0 0.00 0.00 0.00 96 1010.9
20260902122810 13 148 0.0 0.0 0.00 0.00 0.00 96 1010.7
20260902122306 13 147 0.0 0.0 0.00 0.00 0.00 96 1010.9
20260902121806 13 145 0.0 0.0 0.00 0.00 0.00 96 1010.9
20260902121301 13 146 0.0 0.0 0.00 0.00 0.00 96 1010.9
20260902120751 13 155 0.0 0.0 0.00 0.00 0.00 96 1011.3
20260902120247 13 156 0.0 0.0 0.00 0.00 0.00 96 1011.1
20260902115747 13 156 0.0 0.0 0.00 0.00 0.00 96 1011.3
20260902115243 13 148 0.0 0.0 0.00 0.00 0.00 96 1011.1
20260902114739 13 149 0.0 0.0 0.00 0.00 0.00 96 1011.2
20260902114235 13 140 0.0 0.0 0.00 0.00 0.00 96 1011.3
20260902113729 13 147 0.0 0.0 0.00 0.00 0.00 96 1011.2
20260902113225 13 151 0.0 0.0 0.00 0.00 0.00 96 1011.0
20260902112724 13 153 0.0 0.0 0.00 0.00 0.00 96 1011.3
20260902112221 13 154 0.0 0.0 0.00 0.00 0.00 96 1011.3
20260902111716 13 154 0.0 0.0 0.00 0.00 0.00 96 1011.3
20260902111213 13 148 0.0 0.0 0.00 0.00 0.00 96 1011.3
20260902110708 13 148 0.0 0.0 0.00 0.00 0.00 96 1011.5
20260902110204 13 138 0.0 0.0 0.00 0.00 0.00 96 1011.6
20260902105703 13 144 0.0 0.0 0.00 0.00 0.00 96 1011.5
20260902105159 13 156 0.0 0.0 0.00 0.00 0.00 96 1011.7
20260902104654 13 156 0.0 0.0 0.00 0.00 0.00 96 1011.4
20260902104150 13 157 0.0 0.0 0.00 0.00 0.00 96 1011.5
20260902103649 13 153 0.0 0.0 0.00 0.00 0.00 96 1011.5
20260902103144 13 170 0.0 0.0 0.00 0.00 0.00 95 1011.6
20260902102640 13 161 0.0 0.0 0.00 0.00 0.00 95 1011.7
20260902102137 13 148 0.0 0.0 0.00 0.00 0.00 95 1011.8
20260902101632 13 148 0.0 0.0 0.00 0.00 0.00 95 1011.8
20260902101126 13 147 0.0 0.0 0.00 0.00 0.00 95 1012.0
20260902100621 13 156 0.0 0.0 0.00 0.00 0.00 95 1011.7
20260902100116 13 140 0.0 0.0 0.00 0.00 0.00 95 1012.0
20260902095615 13 148 0.0 0.0 0.00 0.00 0.00 95 1011.8
20260902095115 13 148 0.0 0.0 0.00 0.00 0.00 95 1011.9
20260902094610 13 143 0.0 0.0 0.00 0.00 0.00 95 1011.7
20260902094106 13 140 0.0 0.0 0.00 0.00 0.00 94 1012.0
20260902093605 13 137 0.0 0.0 0.00 0.00 0.00 94 1011.9
20260902093100 14 147 0.0 0.0 0.00 0.00 0.00 94 1012.1
20260902092555 14 149 0.0 0.0 0.00 0.00 0.00 94 1011.7
20260902092050 14 156 0.0 0.0 0.00 0.00 0.00 94 1011.6
20260902091545 15 154 0.0 0.0 0.00 0.00 0.00 93 1011.8
20260902091041 15 145 0.0 0.0 0.00 0.00 0.00 93 1012.0
20260902090537 15 160 0.0 0.0 0.00 0.00 0.00 93 1011.9
20260902090036 15 148 0.0 0.0 0.00 0.00 0.00 93 1011.9
20260902085530 15 148 0.0 0.0 0.00 0.00 0.00 93 1012.2
20260902085025 15 155 0.0 0.0 0.00 0.00 0.00 93 1012.3
20260902084521 15 131 0.0 0.0 0.00 0.00 0.00 94 1012.0
20260902084017 15 156 0.0 1.6 0.00 0.00 0.00 94 1012.4
20260902083512 15 156 0.0 1.6 0.00 0.00 0.00 95 1012.5
20260902083006 15 215 4.8 4.8 0.00 0.00 0.00 95 1012.6
20260902082502 15 176 1.6 3.2 0.00 0.00 0.00 95 1012.5
20260902081958 15 149 0.0 0.0 0.00 0.00 0.00 95 1012.6
20260902081455 15 155 0.0 0.0 0.00 0.00 0.00 95 1012.4
20260902080949 15 154 0.0 0.0 0.00 0.00 0.00 95 1012.5
20260902080445 15 155 0.0 0.0 0.00 0.00 0.00 95 1012.3
20260902075939 15 152 0.0 0.0 0.00 0.00 0.00 95 1012.6
20260902075436 15 154 0.0 0.0 0.00 0.00 0.00 95 1012.5
20260902074931 15 150 0.0 0.0 0.00 0.00 0.00 95 1012.5
20260902074426 15 158 0.0 0.0 0.00 0.00 0.00 94 1012.4
20260902073921 15 151 0.0 0.0 0.00 0.00 0.00 94 1012.6
20260902073417 15 142 0.0 0.0 0.00 0.00 0.00 94 1012.7
20260902072913 15 155 0.0 0.0 0.00 0.00 0.00 94 1012.4
20260902072409 15 148 0.0 0.0 0.00 0.00 0.00 94 1012.7
20260902071905 15 149 0.0 0.0 0.00 0.00 0.00 94 1012.6
20260902071404 15 148 0.0 0.0 0.00 0.00 0.00 93 1012.4
20260902070901 15 163 0.0 1.6 0.00 0.00 0.00 93 1012.6
20260902070356 15 154 0.0 0.0 0.00 0.00 0.00 93 1012.4
20260902065854 15 154 0.0 0.0 0.00 0.03 0.03 93 1012.8
20260902065349 15 149 0.0 1.6 0.00 0.03 0.03 93 1012.7
20260902064844 15 155 1.6 1.6 0.00 0.03 0.03 93 1012.7
20260902064341 15 148 0.0 0.0 0.00 0.03 0.03 92 1012.7
20260902063836 15 149 0.0 0.0 0.00 0.03 0.03 92 1012.8
20260902063331 15 147 0.0 0.0 0.00 0.03 0.03 92 1012.9
20260902062830 15 151 0.0 0.0 0.00 0.03 0.03 92 1012.9
20260902062325 15 156 0.0 1.6 0.00 0.03 0.03 92 1012.9
20260902061825 15 153 0.0 0.0 0.00 0.03 0.03 91 1012.9
20260902061320 15 148 0.0 1.6 0.00 0.03 0.03 91 1012.8
20260902060816 15 159 0.0 0.0 0.00 0.03 0.03 91 1013.1
20260902060312 15 160 0.0 0.0 0.00 0.03 0.03 90 1012.9
20260902055807 15 154 0.0 1.6 0.00 0.03 0.03 90 1012.8
20260902055258 15 131 3.2 3.2 0.00 0.03 0.03 90 1012.9
20260902054758 15 170 1.6 1.6 0.00 0.03 0.03 90 1013.1
20260902054254 15 170 0.0 1.6 0.00 0.03 0.03 89 1013.0
20260902053749 15 178 1.6 3.2 0.00 0.03 0.03 89 1013.2
20260902053248 15 157 1.6 8.0 0.00 0.03 0.03 89 1013.1
20260902052749 15 175 4.8 9.7 0.00 0.03 0.03 89 1013.2
20260902052244 15 195 3.2 3.2 0.00 0.03 0.03 90 1013.2
20260902051743 15 228 4.8 4.8 0.00 0.03 0.03 91 1013.4
20260902051238 15 211 3.2 8.0 0.00 0.03 0.03 92 1013.3
20260902050733 15 175 1.6 1.6 0.00 0.03 0.03 93 1013.1
20260902050228 15 153 0.0 3.2 0.00 0.03 0.03 94 1013.3
20260902045728 15 146 0.0 0.0 0.00 0.03 0.03 95 1013.1
20260902045224 15 157 0.0 0.0 0.00 0.03 0.03 95 1013.1
20260902044720 15 156 0.0 0.0 0.00 0.03 0.03 95 1013.2
20260902044215 15 152 0.0 0.0 0.00 0.03 0.03 95 1013.3
20260902043715 15 153 0.0 0.0 0.00 0.03 0.03 95 1013.2
20260902043211 15 152 0.0 0.0 0.00 0.03 0.03 95 1013.2
20260902042710 15 148 0.0 0.0 0.00 0.03 0.03 95 1013.4
20260902042205 15 148 0.0 0.0 0.00 0.03 0.03 95 1013.3
20260902041700 15 152 0.0 0.0 0.00 0.03 0.03 95 1013.1
20260902041154 15 149 0.0 0.0 0.00 0.03 0.03 94 1013.3
20260902040654 15 153 0.0 0.0 0.00 0.03 0.03 94 1013.3
20260902040149 15 147 0.0 0.0 0.00 0.03 0.03 94 1013.2
20260902035647 15 143 0.0 0.0 0.00 0.03 0.03 94 1013.4
20260902035144 15 140 0.0 0.0 0.00 0.03 0.03 94 1013.3
20260902034643 15 133 1.6 1.6 0.00 0.03 0.03 94 1013.3
20260902034143 15 130 1.6 1.6 0.00 0.03 0.03 93 1013.1
20260902033642 15 147 0.0 0.0 0.00 0.03 0.03 93 1013.2
20260902033137 15 143 0.0 0.0 0.00 0.03 0.03 93 1013.0
20260902032635 15 152 0.0 0.0 0.00 0.03 0.03 93 1013.2
20260902032135 15 139 0.0 1.6 0.00 0.03 0.03 92 1013.2
20260902031630 15 144 0.0 0.0 0.00 0.03 0.03 92 1013.0
20260902031126 15 145 1.6 1.6 0.00 0.03 0.03 92 1013.1
20260902030622 15 144 0.0 0.0 0.00 0.03 0.03 91 1013.0
20260902030121 15 172 3.2 3.2 0.00 0.03 0.03 91 1013.1
20260902025620 15 90 1.6 1.6 0.00 0.03 0.03 91 1012.8
20260902025116 15 160 0.0 3.2 0.18 0.03 0.03 90 1013.0
20260902024611 15 160 1.6 8.0 0.00 0.00 0.00 89 1013.1
20260902024106 15 187 1.6 4.8 0.00 0.00 0.00 88 1013.0
20260902023602 16 157 6.4 9.7 0.00 0.00 0.00 86 1013.1
20260902023057 16 154 1.6 9.7 0.00 0.00 0.00 85 1013.1
20260902022556 16 216 11.3 20.9 0.00 0.00 0.00 82 1013.0
20260902022053 16 190 8.0 24.1 0.00 0.00 0.00 81 1012.8
20260902021547 17 119 8.0 9.7 0.00 0.00 0.00 81 1013.1
20260902021042 17 197 1.6 3.2 0.00 0.00 0.00 80 1012.9
20260902020538 17 124 8.0 11.3 0.00 0.00 0.00 81 1012.8
20260902020034 17 179 3.2 8.0 0.00 0.00 0.00 80 1012.8
20260902015530 17 187 1.6 4.8 0.00 0.00 0.00 80 1012.8
20260902015025 17 195 3.2 4.8 0.00 0.00 0.00 80 1012.8
20260902014521 17 183 3.2 4.8 0.00 0.00 0.00 80 1012.8
20260902014016 17 199 6.4 8.0 0.00 0.00 0.00 80 1012.8
20260902013511 17 159 1.6 4.8 0.00 0.00 0.00 79 1012.8
20260902013007 17 147 3.2 4.8 0.00 0.00 0.00 79 1012.7
20260902012502 17 168 3.2 3.2 0.00 0.00 0.00 79 1012.8
20260902011957 17 191 4.8 11.3 0.00 0.00 0.00 78 1012.7
20260902011453 17 201 3.2 4.8 0.00 0.00 0.00 78 1012.8
20260902010952 17 158 1.6 4.8 0.00 0.00 0.00 79 1012.6
20260902010447 17 181 1.6 8.0 0.00 0.00 0.00 80 1012.8
20260902005946 17 191 6.4 11.3 0.00 0.00 0.00 80 1012.9
20260902005445 17 156 4.8 9.7 0.00 0.00 0.00 79 1012.9
20260902004942 17 160 4.8 4.8 0.00 0.00 0.00 79 1013.1
20260902004441 17 202 9.7 12.9 0.00 0.00 0.00 78 1013.0
20260902003937 17 173 1.6 8.0 0.00 0.00 0.00 77 1012.8
20260902003436 17 199 4.8 9.7 0.00 0.00 0.00 77 1012.9
20260902002932 17 165 4.8 8.0 0.00 0.00 0.00 77 1012.8
20260902002426 17 219 8.0 11.3 0.00 0.00 0.00 78 1012.9
20260902001926 17 205 4.8 8.0 0.00 0.00 0.00 80 1012.9
20260902001421 17 158 6.4 11.3 0.00 0.00 0.00 81 1013.0
20260902000916 17 197 4.8 9.7 0.00 0.00 0.00 81 1012.9
20260902000411 17 156 1.6 4.8 0.00 0.00 0.00 80 1012.8
20260901235907 17 148 1.6 9.7 0.00 0.00 0.00 81 1012.9
20260901235406 17 155 4.8 9.7 0.00 0.00 0.00 81 1012.7
20260901234901 17 172 6.4 17.7 0.00 0.00 0.00 80 1012.9
20260901234355 17 199 4.8 11.3 0.00 0.00 0.00 79 1013.0
20260901233850 17 220 8.0 12.9 0.00 0.00 0.00 78 1013.0
20260901233346 18 199 11.3 16.1 0.00 0.00 0.00 77 1012.7
20260901232842 18 196 8.0 11.3 0.00 0.00 0.00 77 1012.9
20260901232337 18 286 9.7 12.9 0.00 0.00 0.00 77 1012.9
20260901231832 17 211 8.0 14.5 0.00 0.00 0.00 77 1012.8
20260901231329 17 193 8.0 12.9 0.00 0.00 0.00 78 1013.0
20260901230825 17 224 3.2 4.8 0.00 0.00 0.00 79 1012.9
20260901230324 17 169 1.6 11.3 0.00 0.00 0.00 79 1012.9
20260901225820 17 216 6.4 11.3 0.00 0.00 0.00 79 1012.7
20260901225319 17 188 6.4 12.9 0.00 0.00 0.00 79 1012.8
20260901224814 17 166 4.8 8.0 0.00 0.00 0.00 79 1013.0
20260901224311 17 191 4.8 8.0 0.00 0.00 0.00 78 1012.8
20260901223808 17 216 4.8 11.3 0.00 0.00 0.00 78 1012.9
20260901223308 17 176 3.2 4.8 0.00 0.00 0.00 78 1012.8
20260901222803 17 186 6.4 11.3 0.00 0.00 0.00 78 1012.9
20260901222254 17 182 11.3 12.9 0.00 0.00 0.00 77 1013.1
20260901221750 17 200 8.0 14.5 0.00 0.00 0.00 77 1013.0
20260901221245 17 150 8.0 9.7 0.00 0.00 0.00 77 1012.9
20260901220744 17 205 6.4 8.0 0.00 0.00 0.00 78 1013.0
20260901220238 17 189 11.3 11.3 0.00 0.00 0.00 78 1013.0
20260901215737 17 201 8.0 11.3 0.00 0.00 0.00 77 1012.9
20260901215231 17 145 4.8 8.0 0.00 0.00 0.00 77 1012.9
20260901214730 17 159 1.6 8.0 0.00 0.00 0.00 77 1013.0
20260901214229 17 241 9.7 11.3 0.00 0.00 0.00 76 1013.0
20260901213729 18 184 6.4 9.7 0.00 0.00 0.00 76 1013.0
20260901213224 18 183 8.0 9.7 0.00 0.00 0.00 75 1013.0
20260901212723 18 176 0.0 3.2 0.00 0.00 0.00 75 1012.9
20260901212219 18 156 8.0 12.9 0.00 0.00 0.00 75 1013.1
20260901211714 18 194 8.0 14.5 0.00 0.00 0.00 75 1012.9
20260901211211 18 172 4.8 9.7 0.00 0.00 0.00 76 1012.9
20260901210706 18 216 4.8 11.3 0.00 0.00 0.00 76 1013.1
20260901210201 17 184 3.2 8.0 0.00 0.00 0.00 76 1013.1
20260901205657 18 223 4.8 8.0 0.00 0.00 0.00 76 1013.0
20260901205152 18 250 3.2 14.5 0.00 0.00 0.00 76 1013.1
20260901204647 17 143 4.8 9.7 0.00 0.00 0.00 76 1013.2
20260901204142 17 198 4.8 11.3 0.00 0.00 0.00 76 1013.2
20260901203636 17 152 3.2 8.0 0.00 0.00 0.00 76 1013.1
20260901203131 17 145 1.6 11.3 0.00 0.00 0.00 76 1013.2
20260901202631 17 193 6.4 14.5 0.00 0.00 0.00 75 1013.2
20260901202127 18 174 6.4 11.3 0.00 0.00 0.00 75 1013.1
20260901201623 17 226 6.4 9.7 0.00 0.00 0.00 76 1013.1
20260901201122 17 203 6.4 9.7 0.00 0.00 0.00 76 1013.2
20260901200621 17 212 4.8 4.8 0.00 0.00 0.00 76 1013.2
20260901200116 18 223 4.8 4.8 0.00 0.00 0.00 76 1013.2
20260901195614 18 181 1.6 8.0 0.00 0.00 0.00 75 1013.3
20260901195114 18 115 1.6 4.8 0.00 0.00 0.00 75 1013.2
20260901194609 18 200 3.2 8.0 0.00 0.00 0.00 75 1013.2
20260901194105 18 176 3.2 4.8 0.00 0.00 0.00 75 1013.3
20260901193600 18 218 4.8 8.0 0.00 0.00 0.00 74 1013.1
20260901193054 18 200 4.8 8.0 0.00 0.00 0.00 75 1013.1
20260901192549 18 205 3.2 8.0 0.00 0.00 0.00 75 1013.3
20260901192045 18 193 4.8 9.7 0.00 0.00 0.00 73 1013.0
20260901191541 18 164 3.2 9.7 0.00 0.00 0.00 74 1013.3
20260901191037 18 165 8.0 11.3 0.00 0.00 0.00 74 1013.4
20260901190532 18 160 0.0 1.6 0.00 0.00 0.00 76 1013.3
20260901190032 18 172 4.8 8.0 0.00 0.00 0.00 76 1013.6
20260901185530 18 170 4.8 4.8 0.00 0.00 0.00 75 1013.4